• In Belarus
  • List of Countries
  • For 7 days
  • Water Temperature
  • Satellite Maps
  • Weather Map
  • Weather Widgets
  • user-avatar
    Login

    Hourly Weather Zofingen

    Today, 18 February, Sunday

    Time Temperature Precipitation Wind Pressure Humidity
    00:00 +2°C° 0.2 mm 1 mps 721 mmHg 96%
    01:00 +1°C° 0.2 mm 1 mps 721 mmHg 96%
    02:00 +1°C° 0.1 mm 1 mps 722 mmHg 96%
    03:00 +1°C° 0.1 mm 1 mps 722 mmHg 96%
    04:00 0°C° 0.1 mm 1 mps 722 mmHg 96%
    05:00 0°C° 0 mm 1 mps 722 mmHg 96%
    06:00 0°C° 0 mm 1 mps 722 mmHg 95%
    07:00 -1°C° 0 mm 1 mps 722 mmHg 95%
    08:00 0°C° 0 mm 1 mps 722 mmHg 93%
    09:00 +1°C° 0 mm 1 mps 722 mmHg 90%
    10:00 +2°C° 0 mm 1 mps 722 mmHg 88%
    11:00 +1°C° 0 mm 2 mps 722 mmHg 86%
    12:00 +2°C° 0 mm 2 mps 721 mmHg 85%
    13:00 +2°C° 0 mm 2 mps 721 mmHg 84%
    14:00 +2°C° 0 mm 2 mps 721 mmHg 84%
    15:00 +2°C° 0 mm 2 mps 721 mmHg 85%
    16:00 +2°C° 0 mm 2 mps 720 mmHg 85%
    17:00 +1°C° 0 mm 2 mps 721 mmHg 88%
    18:00 +1°C° 0 mm 2 mps 721 mmHg 90%
    19:00 +1°C° 0 mm 1 mps 721 mmHg 92%
    20:00 0°C° 0 mm 1 mps 721 mmHg 93%
    21:00 0°C° 0 mm 1 mps 721 mmHg 93%
    22:00 -1°C° 0 mm 1 mps 721 mmHg 94%
    23:00 -1°C° 0 mm 1 mps 720 mmHg 93%

    Tomorrow, 19 February, Monday

    Time Temperature Precipitation Wind Pressure Humidity
    00:00 -1°C° 0 mm 1 mps 720 mmHg 93%
    01:00 -1°C° 0 mm 1 mps 720 mmHg 93%
    02:00 -2°C° 0 mm 1 mps 720 mmHg 92%
    03:00 -2°C° 0 mm 1 mps 720 mmHg 92%
    04:00 -2°C° 0 mm 1 mps 719 mmHg 91%
    05:00 -2°C° 0 mm 1 mps 719 mmHg 91%
    06:00 -2°C° 0 mm 1 mps 719 mmHg 90%
    07:00 -2°C° 0 mm 1 mps 719 mmHg 90%
    08:00 -1°C° 0 mm 1 mps 719 mmHg 87%
    09:00 0°C° 0 mm 0 mps 719 mmHg 83%
    10:00 +1°C° 0 mm 0 mps 719 mmHg 80%
    11:00 +2°C° 0 mm 0 mps 719 mmHg 79%
    12:00 +3°C° 0 mm 1 mps 718 mmHg 78%
    13:00 +4°C° 0 mm 1 mps 718 mmHg 77%
    14:00 +4°C° 0 mm 1 mps 718 mmHg 77%
    15:00 +4°C° 0 mm 1 mps 717 mmHg 78%
    16:00 +4°C° 0 mm 1 mps 717 mmHg 79%
    17:00 +3°C° 0 mm 1 mps 717 mmHg 83%
    18:00 +2°C° 0 mm 1 mps 717 mmHg 87%
    19:00 0°C° 0 mm 1 mps 718 mmHg 91%
    20:00 0°C° 0 mm 1 mps 718 mmHg 91%
    21:00 -1°C° 0 mm 1 mps 718 mmHg 91%
    22:00 -1°C° 0 mm 1 mps 718 mmHg 91%
    23:00 -2°C° 0 mm 1 mps 718 mmHg 90%

    Day after tomorrow, 20 February, Tuesday

    Time Temperature Precipitation Wind Pressure Humidity
    00:00 -3°C° 0 mm 0 mps 717 mmHg 89%
    01:00 -3°C° 0 mm 0 mps 717 mmHg 88%
    02:00 -3°C° 0 mm 0 mps 717 mmHg 87%
    03:00 -4°C° 0 mm 0 mps 717 mmHg 86%
    04:00 -4°C° 0 mm 0 mps 717 mmHg 85%
    05:00 -3°C° 0 mm 1 mps 717 mmHg 84%
    06:00 -3°C° 0 mm 1 mps 716 mmHg 83%
    07:00 -3°C° 0 mm 1 mps 716 mmHg 82%
    08:00 -1°C° 0 mm 1 mps 716 mmHg 78%
    09:00 -1°C° 0 mm 0 mps 716 mmHg 74%
    10:00 +1°C° 0 mm 0 mps 716 mmHg 69%
    11:00 +3°C° 0 mm 1 mps 716 mmHg 67%
    12:00 +4°C° 0 mm 1 mps 716 mmHg 65%
    13:00 +5°C° 0 mm 1 mps 715 mmHg 63%
    14:00 +5°C° 0 mm 1 mps 715 mmHg 65%
    15:00 +3°C° 0 mm 2 mps 715 mmHg 67%
    16:00 +3°C° 0 mm 2 mps 715 mmHg 69%
    17:00 +2°C° 0 mm 2 mps 715 mmHg 76%
    18:00 -1°C° 0 mm 2 mps 715 mmHg 83%
    19:00 -1°C° 0 mm 1 mps 715 mmHg 89%
    20:00 -1°C° 0 mm 1 mps 716 mmHg 89%
    21:00 -2°C° 0 mm 1 mps 716 mmHg 90%
    22:00 -2°C° 0 mm 1 mps 716 mmHg 90%
    23:00 -3°C° 0 mm 1 mps 716 mmHg 90%

    21 February, Wednesday

    Time Temperature Precipitation Wind Pressure Humidity
    00:00 -3°C° 0 mm 1 mps 716 mmHg 89%
    01:00 -3°C° 0 mm 1 mps 716 mmHg 89%
    02:00 -3°C° 0 mm 1 mps 716 mmHg 89%
    03:00 -3°C° 0 mm 1 mps 716 mmHg 88%
    04:00 -4°C° 0 mm 1 mps 716 mmHg 88%
    05:00 -4°C° 0 mm 1 mps 716 mmHg 88%
    06:00 -4°C° 0 mm 1 mps 716 mmHg 87%
    07:00 -4°C° 0 mm 1 mps 716 mmHg 87%
    08:00 -5°C° 0 mm 2 mps 716 mmHg 83%
    09:00 -4°C° 0 mm 2 mps 716 mmHg 80%
    10:00 -2°C° 0 mm 3 mps 716 mmHg 76%
    11:00 -2°C° 0 mm 3 mps 716 mmHg 75%
    12:00 -1°C° 0 mm 3 mps 716 mmHg 73%
    13:00 0°C° 0 mm 3 mps 715 mmHg 72%
    14:00 0°C° 0 mm 3 mps 715 mmHg 74%
    15:00 0°C° 0 mm 3 mps 715 mmHg 75%
    16:00 0°C° 0 mm 3 mps 714 mmHg 77%
    17:00 -1°C° 0.1 mm 3 mps 715 mmHg 81%
    18:00 -2°C° 0.1 mm 2 mps 715 mmHg 85%
    19:00 -2°C° 0.1 mm 2 mps 715 mmHg 88%
    20:00 -3°C° 0 mm 2 mps 715 mmHg 89%
    21:00 -3°C° 0 mm 2 mps 715 mmHg 90%
    22:00 -3°C° 0 mm 2 mps 715 mmHg 90%
    23:00 -3°C° 0 mm 2 mps 714 mmHg 90%

    22 February, Thursday

    Time Temperature Precipitation Wind Pressure Humidity
    00:00 -4°C° 0 mm 2 mps 714 mmHg 89%
    01:00 -4°C° 0 mm 2 mps 713 mmHg 89%
    02:00 -4°C° 0 mm 2 mps 713 mmHg 88%
    03:00 -5°C° 0 mm 3 mps 713 mmHg 88%
    04:00 -5°C° 0 mm 3 mps 712 mmHg 87%
    05:00 -5°C° 0 mm 3 mps 712 mmHg 87%
    06:00 -5°C° 0 mm 3 mps 712 mmHg 86%
    07:00 -5°C° 0 mm 3 mps 711 mmHg 86%
    08:00 -5°C° 0.1 mm 3 mps 711 mmHg 83%
    09:00 -4°C° 0.1 mm 4 mps 711 mmHg 81%
    10:00 -4°C° 0.1 mm 4 mps 710 mmHg 79%
    11:00 -3°C° 0.1 mm 4 mps 710 mmHg 77%
    12:00 -3°C° 0.1 mm 4 mps 710 mmHg 76%
    13:00 -2°C° 0.1 mm 4 mps 709 mmHg 74%
    14:00 -2°C° 0.1 mm 4 mps 709 mmHg 76%
    15:00 -2°C° 0.1 mm 4 mps 709 mmHg 77%
    16:00 -2°C° 0.1 mm 4 mps 709 mmHg 78%
    17:00 -3°C° 0.1 mm 4 mps 709 mmHg 81%
    18:00 -2°C° 0.1 mm 3 mps 710 mmHg 84%
    19:00 -4°C° 0.1 mm 3 mps 710 mmHg 87%
    20:00 -4°C° 0.1 mm 3 mps 710 mmHg 87%
    21:00 -4°C° 0.1 mm 3 mps 710 mmHg 87%
    22:00 -4°C° 0.1 mm 3 mps 710 mmHg 88%
    23:00 -4°C° 0 mm 3 mps 710 mmHg 87%

    23 February, Friday

    Time Temperature Precipitation Wind Pressure Humidity
    00:00 -4°C° 0 mm 3 mps 710 mmHg 87%
    01:00 -4°C° 0 mm 3 mps 710 mmHg 87%
    02:00 -5°C° 0 mm 3 mps 710 mmHg 87%
    03:00 -5°C° 0 mm 3 mps 710 mmHg 87%
    04:00 -4°C° 0 mm 2 mps 710 mmHg 87%
    05:00 -4°C° 0 mm 2 mps 710 mmHg 87%
    06:00 -5°C° 0 mm 3 mps 711 mmHg 87%
    07:00 -5°C° 0 mm 3 mps 711 mmHg 86%
    08:00 -4°C° 0 mm 3 mps 711 mmHg 84%
    09:00 -2°C° 0 mm 3 mps 711 mmHg 81%
    10:00 -2°C° 0 mm 3 mps 711 mmHg 78%
    11:00 -1°C° 0 mm 3 mps 712 mmHg 77%
    12:00 -1°C° 0 mm 4 mps 712 mmHg 76%
    13:00 -1°C° 0 mm 4 mps 712 mmHg 74%
    14:00 -1°C° 0 mm 4 mps 712 mmHg 75%
    15:00 -1°C° 0 mm 4 mps 712 mmHg 77%
    16:00 -1°C° 0 mm 4 mps 712 mmHg 78%
    17:00 -1°C° 0 mm 3 mps 712 mmHg 81%
    18:00 -1°C° 0 mm 3 mps 713 mmHg 84%
    19:00 -2°C° 0 mm 3 mps 713 mmHg 87%
    20:00 -4°C° 0 mm 3 mps 714 mmHg 87%
    21:00 -4°C° 0 mm 3 mps 714 mmHg 86%
    22:00 -4°C° 0 mm 3 mps 715 mmHg 86%
    23:00 -5°C° 0 mm 3 mps 715 mmHg 86%
    Show more